Retour au catalogue

HULIANWANG DIGUI-67

ActifCommunicationsPO
NORAD 65173·PAYLOAD·🇨🇳 China

Lancé Aug 13, 2025 depuis Wenchang Space Launch Site

Loading…

Prochains Passages (prochaines 24 heures)

TLE

FraisSource: Space-Track

Époque: Sep 14, 2026, 22:26 UTC

1 65173U 25174K   26257.93497960  .00000052  00000-0  86463-4 0  9998
2 65173  86.4943 221.6268 0002241  80.2942 279.8445 13.24400912 52630

Suivez HULIANWANG DIGUI-67 en temps réel avec AllMySat

Download on the App Store